Wind_Speed
80 81 83 88 91 94 100 98 94 94 107 104 84 69 68 70 67 69 65 66 64 64 59 52 49 50 48 44 41 40 38 35 35 36 36 37 40 32 27 22 23 25 28 33
77 78 80 83 85 91 93 92 90 96 110 94 77 67 73 74 70 68 67 66 63 62 58 53 53 52 52 47 42 40 37 35 35 35 38 37 41 38 32 21 25 29 29 36
75 76 77 80 80 85 89 91 93 101 101 79 79 74 76 75 72 71 66 66 65 63 58 56 53 52 53 45 41 39 37 36 37 36 39 37 39 40 36 27 26 31 31 35
70 73 75 77 76 82 85 87 89 90 81 75 73 71 77 80 77 73 69 67 62 59 58 57 54 52 52 47 44 40 39 37 39 38 38 37 40 42 40 31 27 29 36 33
65 68 70 74 75 78 79 77 79 78 77 77 83 77 76 77 79 77 68 66 63 60 57 58 57 53 52 47 43 41 40 39 39 38 39 39 38 43 39 34 28 27 32 33
62 62 66 68 68 69 69 69 74 75 78 79 83 75 77 77 77 77 72 68 68 64 62 64 60 54 52 46 45 44 43 41 41 39 40 38 38 40 37 32 31 25 24 32
57 60 62 63 61 59 64 68 73 72 74 78 79 82 81 80 76 80 78 75 69 68 69 65 59 56 53 50 49 46 44 43 43 42 38 34 43 44 37 35 33 25 28 31
52 56 56 58 60 57 62 68 68 70 79 82 86 88 85 84 80 83 82 82 77 75 68 64 61 57 54 50 49 47 43 45 44 39 35 34 37 46 38 38 32 33 28 28
48 50 52 56 53 56 63 65 64 71 79 83 88 91 89 87 81 85 81 83 81 77 72 68 63 61 57 53 49 47 44 46 43 39 37 33 41 41 44 40 36 35 26 30
43 46 50 50 51 55 58 57 61 68 75 82 86 92 91 90 85 84 83 83 84 80 75 70 68 64 59 52 47 48 47 48 46 40 35 34 35 46 44 44 38 36 31 31
43 45 48 49 49 49 52 55 59 66 72 80 84 92 95 91 87 84 84 88 84 80 74 67 65 62 58 55 50 49 48 46 44 42 40 33 45 42 47 45 42 34 32 33
40 41 42 41 41 47 49 53 56 64 74 77 80 86 92 93 89 88 86 82 84 78 76 68 64 59 55 49 47 47 48 47 47 49 43 40 45 47 48 46 40 35 36 36
34 35 34 37 41 43 47 51 56 61 72 77 81 86 93 97 92 89 85 83 81 77 73 69 66 60 52 49 48 50 50 50 52 54 48 48 45 47 51 45 42 41 40 37
29 31 35 39 41 43 45 49 56 62 71 74 79 86 93 97 95 88 85 85 81 79 76 72 65 61 60 59 58 57 55 56 56 55 52 51 50 55 48 47 45 44 45 40
32 34 36 38 41 42 45 49 53 61 68 74 78 83 89 92 94 91 88 84 80 77 73 69 66 64 63 63 62 57 54 53 56 53 54 52 51 52 47 48 50 50 49 48
31 32 34 35 36 40 42 46 51 57 62 69 73 72 81 93 95 92 88 85 79 75 70 67 66 66 67 66 61 58 56 51 52 54 54 54 51 50 48 53 54 54 54 52
29 30 31 33 37 41 46 51 54 57 60 61 64 72 76 86 91 92 90 85 77 74 70 65 64 65 66 64 59 56 56 56 56 55 56 54 53 50 49 52 57 59 58 53
28 29 31 33 37 42 44 47 48 52 57 62 66 67 72 82 91 94 92 86 81 77 71 66 64 64 61 55 51 55 58 58 59 58 58 57 57 53 52 54 57 61 64 61
31 32 32 33 35 36 39 43 47 50 54 62 63 61 66 73 81 89 89 83 78 77 73 70 68 63 57 53 55 58 59 58 60 60 61 60 57 57 56 57 59 61 62 64
28 30 31 31 31 32 35 36 39 43 48 49 58 64 63 61 66 76 79 79 76 76 73 73 68 62 61 58 58 60 61 61 60 59 61 60 60 60 62 62 65 67 64 65
21 21 23 26 27 30 32 35 37 37 39 44 50 51 49 48 57 65 71 73 79 77 71 71 66 63 61 62 62 63 61 59 59 61 59 57 58 60 61 65 70 69 69 72
23 25 26 28 30 33 38 43 48 51 54 52 48 47 46 48 51 55 65 71 65 63 65 68 64 62 60 61 62 62 60 59 58 58 54 55 61 62 62 67 68 71 71 71
31 31 32 34 32 36 40 45 50 53 49 45 43 43 45 46 45 44 47 47 49 48 48 48 49 52 53 55 55 54 51 52 52 49 53 53 56 65 70 70 71 73 75 76
39 35 35 33 36 40 40 40 40 41 43 44 44 43 42 44 42 43 43 47 48 46 48 42 45 49 50 54 55 52 51 47 47 58 51 54 63 67 73 75 77 80 80 81
43 41 45 44 42 43 44 44 43 40 40 39 42 48 52 51 49 42 42 46 48 48 45 45 50 53 53 51 56 49 50 48 58 63 65 70 73 75 79 81 84 84 87 92
41 38 38 39 38 37 39 41 40 42 39 37 40 46 51 51 48 50 47 46 48 48 49 54 52 52 48 52 50 54 54 59 67 69 69 73 77 79 83 88 92 94 96 94
33 37 31 35 33 33 38 39 42 44 42 46 50 51 52 50 44 45 49 52 54 53 56 59 59 59 57 60 59 58 62 66 69 70 76 82 86 88 91 95 95 98 98 101
Wind_Direction
246 243 241 239 235 233 235 232 230 232 234 234 234 225 222 221 222 226 224 227 229 236 242 244 247 253 259 265 272 280 285 292 300 310 318 330 337 342 331 271 251 247 240 243
242 240 238 237 234 231 231 231 227 227 231 228 228 220 216 218 220 224 221 225 227 233 238 240 244 251 257 261 267 273 280 287 294 303 309 322 333 341 336 290 255 255 245 244
238 236 235 234 232 230 229 227 223 223 226 221 218 214 213 213 217 222 220 223 226 231 235 239 244 248 253 257 262 270 275 280 289 298 307 319 326 332 336 318 259 251 255 254
234 233 231 232 231 228 227 225 224 224 225 220 215 213 210 210 213 218 218 222 225 229 234 239 243 244 249 253 259 267 271 276 286 296 306 319 323 324 333 324 298 252 247 249
230 230 230 227 228 227 226 224 223 219 218 213 211 208 207 209 214 217 217 221 223 226 231 236 240 242 247 252 258 265 269 274 286 293 303 314 317 320 328 324 310 284 256 257
226 226 225 226 229 228 226 222 220 214 211 211 209 202 204 208 214 216 216 219 223 224 229 232 234 239 245 250 256 259 269 274 280 291 301 312 300 321 328 324 318 288 267 258
222 222 221 221 224 223 220 217 215 209 209 210 202 201 202 205 209 215 215 217 220 225 228 232 236 239 242 247 254 260 265 270 280 289 299 300 310 310 326 324 316 289 265 264
214 216 216 216 218 215 215 216 212 204 204 205 200 199 199 203 207 214 215 218 216 222 225 231 234 237 242 246 253 257 265 273 278 286 297 295 294 310 313 321 311 312 278 269
207 209 210 213 214 210 212 213 209 203 202 202 199 198 197 201 206 216 215 218 220 221 222 223 230 235 236 241 249 260 266 271 276 285 288 288 294 298 309 315 305 321 284 266
201 203 206 208 210 209 210 209 205 203 202 202 198 197 196 199 204 213 216 220 221 220 223 225 229 234 238 244 251 259 262 264 275 277 283 283 278 294 304 307 312 306 301 281
195 199 202 204 207 205 206 207 203 201 200 202 199 197 197 197 203 211 215 220 221 222 224 227 232 236 241 244 250 258 259 262 268 273 275 273 284 292 296 303 304 301 299 283
192 195 198 201 201 202 202 203 201 199 199 201 198 197 199 197 202 209 216 219 219 219 220 223 229 234 239 243 246 248 255 257 259 270 275 276 282 288 293 295 297 295 297 285
187 189 191 192 198 200 199 198 198 195 198 199 195 197 198 197 201 209 214 219 221 220 220 222 225 230 231 233 240 244 248 253 261 269 273 280 282 284 290 289 288 292 297 291
179 182 187 191 195 198 198 196 195 195 198 197 197 196 197 199 201 205 211 217 219 221 222 225 228 231 236 241 242 244 251 259 266 273 276 275 279 287 281 282 288 289 295 289
176 181 186 190 192 193 194 196 194 195 197 196 197 196 199 198 200 204 210 216 219 222 223 224 227 231 235 239 243 250 256 259 264 268 271 277 276 277 274 275 281 284 292 290
172 178 185 188 187 192 192 192 194 196 197 198 196 196 197 198 200 203 209 216 220 223 224 225 228 231 236 241 246 249 252 256 259 265 270 272 272 272 269 272 278 283 287 290
172 176 180 184 182 188 191 191 192 193 194 196 195 195 198 200 202 203 210 216 222 225 226 228 230 233 238 242 246 247 252 254 259 264 264 265 267 266 270 270 276 280 286 288
169 174 179 184 181 185 188 191 190 191 188 189 194 194 196 200 203 206 211 216 222 226 228 228 231 233 237 240 242 244 250 254 257 257 260 264 267 268 267 268 274 281 284 288
169 175 180 183 184 186 186 189 188 191 190 188 189 193 197 202 204 208 213 218 221 226 228 231 232 235 241 241 242 246 248 251 254 258 265 263 263 268 268 270 273 277 281 282
170 173 175 176 180 180 183 183 183 182 185 184 182 190 196 199 203 209 213 218 222 224 226 231 234 237 239 241 244 246 250 252 257 261 260 260 265 264 264 268 270 270 276 278
156 152 157 167 171 168 169 170 170 173 175 178 184 187 193 198 204 208 211 215 221 221 225 231 234 238 239 241 244 245 248 252 254 258 258 259 260 263 264 268 268 269 271 275
139 144 149 154 157 161 163 163 164 167 169 171 179 185 186 191 199 204 210 218 225 227 230 233 233 237 240 240 242 245 249 251 253 255 255 256 258 260 266 271 272 275 278 282
134 137 139 142 149 157 161 165 166 169 170 170 174 177 181 186 193 201 211 215 220 221 224 230 230 231 234 236 239 240 239 241 241 247 257 259 271 271 271 276 279 279 281 282
123 126 130 140 151 155 158 159 158 161 167 170 174 175 178 182 185 191 198 206 209 212 213 215 225 223 225 227 228 229 231 237 254 255 260 267 261 267 275 279 280 281 286 287
130 134 136 143 149 154 156 163 166 167 169 173 176 181 182 179 185 192 206 202 206 207 210 216 213 214 217 221 223 230 246 251 252 252 257 261 266 270 272 274 278 280 282 284
133 136 137 146 152 156 160 155 160 163 167 174 187 187 188 188 197 200 207 212 214 216 217 212 214 217 222 228 236 242 244 245 247 258 264 267 267 267 268 271 274 277 280 285
148 148 144 151 162 168 176 179 174 174 181 182 187 194 202 203 206 214 221 221 223 224 221 221 226 227 234 238 240 241 246 251 257 258 258 260 262 264 268 271 275 278 282 285
Height
10207 10219 10230 10240 10254 10267 10276 10302 10326 10354 10345 10360 10401 10443 10467 10475 10486 10494 10508 10518 10527 10534 10542 10551 10556 10560 10561 10566 10568 10569 10570 10571 10571 10571 10570 10568 10565 10561 10558 10556 10556 10556 10554 10551
10181 10194 10205 10215 10229 10241 10254 10280 10309 10316 10310 10347 10393 10430 10444 10456 10470 10479 10493 10503 10513 10522 10530 10539 10544 10548 10550 10556 10559 10559 10562 10563 10563 10564 10564 10562 10560 10557 10553 10550 10550 10549 10548 10544
10158 10170 10182 10193 10207 10218 10232 10254 10271 10274 10295 10355 10377 10401 10423 10442 10455 10464 10479 10490 10499 10509 10517 10526 10531 10535 10538 10545 10549 10550 10553 10554 10555 10556 10556 10555 10553 10552 10549 10545 10542 10541 10542 10539
10136 10149 10161 10174 10187 10198 10211 10231 10247 10273 10309 10337 10371 10391 10409 10421 10436 10451 10463 10474 10488 10498 10505 10513 10517 10520 10526 10533 10538 10541 10544 10545 10547 10548 10548 10548 10545 10543 10542 10538 10534 10534 10530 10533
10118 10132 10144 10154 10167 10180 10195 10220 10243 10268 10300 10328 10336 10366 10393 10412 10422 10436 10455 10465 10473 10482 10491 10496 10500 10507 10515 10522 10528 10531 10535 10536 10538 10538 10540 10539 10538 10536 10533 10529 10526 10524 10523 10523
10101 10115 10128 10142 10154 10174 10197 10219 10233 10256 10284 10298 10321 10359 10377 10396 10407 10421 10438 10449 10451 10466 10473 10475 10485 10496 10504 10511 10517 10520 10525 10527 10529 10530 10532 10531 10526 10529 10527 10524 10519 10517 10516 10511
10088 10101 10115 10131 10148 10168 10185 10200 10212 10242 10268 10278 10319 10337 10359 10377 10395 10400 10415 10425 10437 10448 10451 10465 10477 10485 10493 10501 10505 10511 10514 10516 10519 10521 10523 10522 10517 10518 10519 10517 10513 10511 10509 10507
10077 10091 10107 10123 10139 10156 10172 10181 10203 10225 10239 10266 10292 10315 10339 10356 10374 10380 10397 10405 10417 10423 10442 10456 10466 10475 10483 10491 10494 10499 10503 10506 10509 10512 10514 10512 10507 10507 10510 10510 10503 10504 10504 10503
10070 10085 10101 10116 10131 10148 10156 10169 10194 10213 10227 10250 10272 10298 10321 10342 10361 10364 10381 10390 10401 10415 10429 10443 10453 10462 10473 10479 10484 10489 10493 10494 10498 10503 10504 10503 10496 10498 10499 10501 10495 10497 10495 10493
10066 10081 10095 10109 10122 10135 10148 10167 10185 10201 10220 10236 10257 10283 10308 10325 10343 10353 10366 10375 10385 10401 10416 10432 10444 10453 10460 10468 10474 10479 10481 10483 10488 10490 10494 10493 10486 10487 10489 10490 10490 10484 10484 10484
10064 10077 10090 10103 10114 10131 10145 10159 10177 10194 10215 10230 10249 10269 10289 10311 10328 10338 10350 10351 10373 10394 10412 10426 10435 10444 10452 10457 10464 10467 10469 10470 10475 10479 10483 10484 10478 10480 10480 10480 10479 10478 10476 10473
10063 10076 10089 10101 10115 10126 10141 10154 10169 10185 10200 10216 10238 10260 10279 10299 10311 10317 10331 10350 10359 10380 10393 10413 10422 10432 10440 10447 10453 10454 10459 10459 10461 10467 10473 10473 10469 10469 10470 10470 10471 10468 10466 10464
10066 10078 10090 10102 10110 10121 10134 10148 10162 10177 10192 10206 10228 10249 10263 10279 10297 10308 10324 10336 10353 10375 10387 10397 10406 10420 10426 10433 10441 10441 10445 10446 10449 10455 10459 10459 10460 10458 10459 10459 10458 10457 10456 10453
10070 10080 10088 10097 10107 10117 10130 10141 10153 10168 10180 10200 10217 10233 10251 10267 10287 10306 10317 10324 10343 10358 10374 10387 10400 10409 10415 10421 10427 10431 10436 10438 10440 10445 10446 10444 10447 10448 10447 10446 10445 10444 10443 10441
10069 10078 10087 10096 10105 10115 10126 10138 10151 10163 10177 10191 10205 10226 10241 10263 10282 10296 10305 10316 10334 10348 10363 10379 10389 10397 10402 10408 10415 10426 10429 10429 10426 10431 10429 10434 10434 10435 10435 10433 10431 10430 10429 10428
10072 10080 10088 10097 10107 10116 10126 10139 10150 10163 10176 10188 10203 10223 10239 10254 10270 10287 10300 10311 10324 10339 10353 10367 10378 10386 10391 10398 10411 10414 10415 10416 10416 10418 10418 10419 10423 10422 10421 10419 10418 10417 10416 10414
10074 10082 10090 10097 10107 10114 10122 10129 10141 10153 10168 10188 10205 10217 10237 10253 10267 10281 10291 10304 10319 10332 10344 10359 10367 10374 10379 10391 10402 10400 10401 10403 10404 10406 10405 10407 10406 10407 10407 10407 10404 10403 10402 10401
10077 10084 10090 10096 10105 10113 10124 10133 10145 10156 10168 10184 10200 10218 10234 10248 10261 10272 10283 10300 10311 10322 10336 10348 10355 10360 10370 10384 10389 10387 10387 10390 10390 10391 10391 10393 10392 10394 10395 10394 10392 10390 10388 10387
10079 10085 10092 10100 10109 10118 10128 10136 10146 10157 10171 10181 10198 10216 10230 10240 10253 10267 10279 10293 10304 10317 10331 10338 10342 10353 10366 10374 10374 10372 10373 10374 10374 10376 10379 10378 10379 10379 10380 10379 10378 10376 10374 10372
10085 10090 10097 10105 10113 10123 10132 10143 10155 10166 10176 10190 10201 10212 10224 10239 10253 10265 10279 10288 10299 10312 10322 10325 10335 10346 10351 10357 10359 10358 10359 10361 10363 10365 10365 10367 10366 10365 10365 10364 10361 10359 10357 10354
10097 10104 10110 10115 10122 10130 10139 10148 10159 10173 10187 10196 10206 10217 10231 10245 10255 10266 10277 10283 10286 10299 10312 10316 10325 10333 10337 10341 10343 10343 10345 10348 10349 10350 10352 10353 10352 10350 10348 10345 10342 10342 10340 10338
10106 10111 10117 10122 10128 10136 10143 10151 10160 10172 10181 10193 10207 10219 10229 10239 10250 10261 10268 10274 10286 10297 10304 10305 10314 10318 10320 10323 10325 10329 10333 10334 10335 10335 10336 10335 10333 10332 10332 10330 10328 10326 10325 10322
10113 10119 10124 10132 10141 10147 10153 10160 10168 10175 10186 10199 10212 10221 10228 10235 10247 10257 10263 10273 10281 10288 10291 10294 10301 10304 10306 10308 10312 10316 10317 10318 10318 10319 10318 10318 10317 10316 10314 10313 10311 10308 10306 10303
10124 10130 10136 10144 10151 10157 10166 10174 10183 10189 10195 10203 10211 10220 10228 10235 10243 10250 10257 10262 10268 10272 10277 10281 10287 10290 10293 10295 10299 10302 10303 10304 10308 10305 10304 10304 10302 10299 10297 10294 10292 10290 10286 10280
10134 10141 10146 10154 10160 10166 10172 10178 10184 10193 10201 10208 10215 10219 10224 10232 10236 10243 10249 10255 10259 10264 10267 10270 10273 10277 10280 10284 10286 10288 10290 10292 10294 10294 10293 10289 10287 10285 10281 10278 10275 10271 10266 10262
10148 10154 10160 10164 10170 10176 10182 10189 10194 10200 10207 10213 10218 10223 10226 10230 10236 10240 10245 10250 10253 10256 10259 10263 10266 10268 10271 10273 10275 10276 10276 10277 10276 10275 10275 10273 10270 10267 10264 10259 10255 10251 10246 10241
10159 10163 10171 10176 10181 10184 10189 10193 10197 10203 10208 10211 10218 10223 10226 10230 10233 10236 10240 10243 10246 10249 10252 10254 10256 10258 10258 10259 10259 10259 10260 10260 10259 10259 10256 10253 10250 10246 10243 10240 10234 10229 10224 10218